Regional Weather Roundup
Issued by NWS Newport/Morehead, NC

Home | Current Version | Previous Version | Text Only | Print | Product List | Glossary On
Versions: 1 2 3 4 5 6 7 8 9 10 11 12 13 14 15 16 17 18 19 20 21 22 23 24 25 26 27 28 29 30 31 32 33 34 35 36 37 38 39 40 41 42 43 44 45 46 47 48 49 50
000
ASUS42 KMHX 030913
RWRMHX
WEATHER ROUNDUP FOR EASTERN NORTH CAROLINA
NATIONAL WEATHER SERVICE NEWPORT/MOREHEAD CITY NC
500 AM EDT TUE MAY 03 2016

NOTE: "FAIR" INDICATES FEW OR NO CLOUDS BELOW 12,000 FEET
WITH NO SIGNIFICANT WEATHER AND/OR OBSTRUCTIONS TO VISIBILITY

NCZ015>017-031-032-045>047-102-103-031000-
NORTH COAST

CITY           SKY/WX    TMP DP  RH WIND       PRES   REMARKS
EDENTON        CLOUDY    71  71 100 CALM      29.87S
ELIZABETH CITY CLOUDY    69  67  93 W5        29.86R
KITTY HAWK     CLOUDY    73  69  88 SW6       29.86R
MANTEO         NOT AVBL

$$

NCZ045>047-081-094-103-104-031000-
CENTRAL COAST

CITY           SKY/WX    TMP DP  RH WIND       PRES   REMARKS
FRISCO         CLOUDY    71  69  93 SW10G18   29.88S
SWANQUARTER    NOT AVBL

$$

NCZ095-097-098-100-101-031000-
SOUTHERN COAST

CITY           SKY/WX    TMP DP  RH WIND       PRES   REMARKS
BEAUFORT       CLOUDY    71  69  93 SW14      29.88S
CEDAR ISLAND   NOT AVBL
JACKSONVILLE   CLOUDY    72  66  81 S13       29.86S
PINEY ISLAND   NOT AVBL
WILMINGTON     CLOUDY    73  65  75 S9        29.87F


$$

NCZ011>013-027>030-043-044-078>080-089-090>093-098-031000-
COASTAL PLAIN

CITY           SKY/WX    TMP DP  RH WIND       PRES   REMARKS
AHOSKIE        CLOUDY    65  64  96 S5        29.85F
CLINTON        HVY RAIN  70  70 100 SW3       29.86F
ELIZABETHTOWN  CLOUDY    72  72 100 S5        29.86F
GOLDSBORO      TSTM      70  70 100 W13       29.84F
GREENVILLE     CLOUDY    68  68 100 CALM      29.89S
HAVELOCK       CLOUDY    73  68  84 SW14G21   29.88S
KENANSVILLE    CLOUDY    70  69  97 CALM      29.87F
KINSTON        DRIZZLE   71  69  95 S8        29.86F
NEW BERN       LGT RAIN  72  68  87 SW8       29.88R
RICHLANDS      CLOUDY    70  69  97 S7        29.87S
ROCKY MOUNT    CLOUDY    68  66  93 E3        29.84F
WASHINGTON     DRIZZLE   69  68  95 SW6       29.86S
WHITEVILLE     LGT RAIN  73  70  92 S7        29.85F

$$

AMZ130-135-150-152-154-156-158-170-250-252-270-ANZ085-086-088-633-658-670-031000-
MARINE OBSERVATIONS

STATION/POSITION TIME  TEMP    WIND        PRES    WAVE   SWELL
                       AIR SEA DIR/SP/G            HT/PER HT/PER
                 (UTC) (F)     (DEG/KT/KT) (MB)    (FT/S) (FT/S)
CHESAPEAKE LIGHT 0900   68     200/ 12/ 12 1010.9
64 E VA BEACH    0850   58 54  260/  8/ 12 1010.9    3/ 5   3/ 5
DUCK             0800   71 66  220/  7/ 10 1010.4
2 E DUCK         0811      57                N/A     2/11
OREGON INLET     0800   71 72  200/ 16/ 19 1011.1
13E OREGON INLT  0900      61                N/A     4/ 6   2/10
HATTERAS CG      0800   72 70  210/ 13/ 16 1011.5
DIAMOND BUOY     0850   75 73  210/ 19/ 23 1011.3    4/ 5   2/10
CAPE LOOKOUT     0900   72     210/ 12/ 16 1011.6
BEAUFORT LAB     0800   71 68  200/ 12/ 15 1010.8
30 SE NEW RVR IN 0825      70                N/A     5/ 6
27 SE WRIGHTSVLE 0808   74 72  200/ 19/ 23 1010.7
5 SE WRIGHTSVLE  0808   71 69  220/ 16/ 21 1012.4
225 S CAPE HAT   0850   74 74  160/ 17/ 19 1015.4    4/ 9   2/ 9
41 SE CHARLESTON 0850   72 75  260/ 14/ 27 1012.3    4/ 6   2/ 9

$$




USA.gov is the U.S. government's official web portal to all federal, state and local government web resources and services.